Wind_Speed
7 6 3 3 2 4 3 4 10 12 11 5 12 19 25 27 21 12 7 11 17 20 24 27 21 16 20 22 22 20 27 34 36 42 44 51 50 46 47 44 47 44 43 42
5 2 1 5 4 3 2 7 8 10 4 7 14 23 21 11 6 1 3 11 18 23 29 34 32 22 15 16 20 23 23 29 35 39 46 47 56 44 44 46 48 46 45 47
1 1 4 3 2 4 3 4 5 6 15 2 6 9 6 4 1 4 4 11 15 21 31 39 40 30 22 15 15 22 26 29 32 39 44 48 45 44 43 42 44 47 48 50
3 4 3 3 2 1 6 3 7 12 9 4 6 6 6 3 5 2 9 15 23 23 28 33 39 35 27 22 17 17 26 31 32 35 43 50 50 49 50 46 44 49 40 49
2 4 4 2 2 2 8 9 14 9 5 4 1 4 9 3 1 2 7 19 25 26 30 35 35 34 29 26 24 21 20 30 35 34 41 46 50 48 45 47 47 46 43 45
4 4 2 2 5 3 8 7 8 1 0 2 4 2 8 4 2 2 8 17 21 29 32 37 34 38 41 33 29 24 22 25 32 35 37 43 46 47 46 46 47 49 46 43
7 1 3 3 4 2 10 6 5 6 4 5 2 4 11 3 4 4 9 22 22 31 31 32 31 39 41 37 32 27 23 23 28 34 36 40 44 48 46 48 44 44 46 41
4 8 4 4 1 3 3 2 4 4 4 10 15 7 6 5 5 9 24 28 39 34 32 34 42 38 38 34 30 28 24 23 24 33 31 36 38 48 46 46 46 40 44 45
3 6 3 2 2 3 4 2 4 5 2 4 4 6 8 4 7 22 26 36 36 32 35 39 39 37 36 32 30 29 25 22 23 29 30 34 36 44 43 45 41 39 44 48
2 5 1 5 2 1 4 3 4 3 5 6 6 7 9 5 14 20 22 31 29 36 35 35 36 36 30 27 27 26 23 21 22 25 29 32 36 35 40 42 41 41 45 50
4 3 5 2 1 2 4 3 2 2 2 3 6 8 3 6 18 21 23 27 33 34 35 36 37 35 28 27 24 21 20 20 21 24 28 33 33 37 39 43 41 41 44 45
3 3 5 7 3 3 1 4 4 3 4 4 5 8 4 13 20 33 35 29 35 35 36 37 36 32 26 23 19 19 19 19 17 21 22 31 32 34 28 36 37 39 38 39
4 2 4 9 5 2 2 3 2 0 0 7 3 8 14 21 22 35 21 35 35 37 37 37 35 30 25 22 17 12 13 12 17 21 21 33 35 33 28 31 30 28 29 28
6 3 7 6 5 2 6 6 7 4 3 3 9 20 27 25 25 26 24 33 34 33 33 35 34 29 24 19 13 7 5 13 17 20 32 35 32 31 28 25 24 22 26 31
4 4 4 8 16 9 14 17 12 9 12 5 9 16 26 21 22 24 30 32 31 33 35 35 34 28 23 18 12 5 12 12 18 22 29 32 32 28 25 24 27 28 29 32
1 3 3 5 4 3 9 16 16 14 12 15 19 21 10 30 29 19 30 31 31 31 33 34 30 26 24 20 16 11 14 16 19 23 26 27 32 30 30 29 34 37 42 40
5 1 3 6 6 10 5 6 6 4 6 5 6 10 17 19 17 14 29 32 31 31 31 30 27 25 22 21 18 18 18 17 20 28 30 30 34 37 37 41 43 44 42 40
4 1 1 4 7 4 5 4 6 7 11 8 11 12 15 17 24 12 34 32 31 31 27 25 23 22 21 19 21 21 19 22 26 30 35 38 39 42 46 45 44 45 44 44
4 2 1 1 2 9 6 3 4 4 6 4 5 10 17 23 15 4 36 29 27 25 23 21 20 19 19 21 20 24 28 29 32 34 36 37 41 44 46 47 47 46 43 39
4 3 3 1 1 5 5 4 3 6 4 4 5 6 11 17 9 5 30 27 26 25 23 21 20 19 21 22 20 26 30 33 35 35 37 39 41 45 47 46 44 42 39 38
3 3 5 4 4 10 10 7 4 4 4 4 3 7 8 3 2 14 19 24 23 23 24 23 22 24 23 23 24 31 32 35 34 35 38 40 41 41 40 38 38 38 35 33
8 9 4 3 1 8 13 7 6 3 2 4 5 5 5 6 7 10 13 19 23 25 24 25 27 29 30 32 36 39 40 37 38 38 39 37 35 36 35 33 33 31 30 28
3 7 5 10 7 6 13 10 10 6 7 8 7 4 4 5 7 7 9 13 16 20 22 23 25 27 29 31 34 39 39 35 34 35 36 36 34 31 29 27 27 25 23 21
5 10 4 1 5 19 32 32 28 26 26 23 10 2 2 3 3 4 5 8 10 12 15 17 20 24 26 27 27 30 30 30 30 31 30 29 28 27 25 22 20 19 18 17
5 12 6 6 15 23 32 26 21 16 11 12 5 2 3 1 1 2 3 5 8 10 11 11 13 16 18 19 20 20 20 20 22 24 24 23 22 21 20 19 16 14 14 11
14 8 6 8 11 4 5 5 7 16 21 14 9 7 5 4 2 3 5 5 5 8 9 10 11 12 14 15 16 16 15 13 14 17 17 16 13 12 12 12 14 14 12 9
Wind_Direction
11 56 36 336 259 233 235 240 260 271 279 297 290 297 287 302 304 300 344 22 0 352 355 1 354 325 275 248 240 253 244 241 237 228 229 218 212 221 224 226 227 223 226 223
18 57 327 291 256 261 244 276 282 284 253 328 306 290 287 305 290 182 68 352 346 345 340 347 351 345 328 291 252 236 241 244 238 233 230 226 224 225 229 226 228 226 230 228
112 21 323 304 321 348 274 241 292 291 321 316 328 284 333 325 17 175 346 357 350 338 340 339 340 339 328 312 284 249 235 231 241 233 231 229 225 225 226 227 227 227 230 231
221 330 340 321 25 357 309 185 290 300 333 297 67 287 296 284 294 81 321 339 344 337 338 329 332 331 323 315 298 275 247 233 230 234 229 225 220 220 226 231 231 232 225 234
311 339 331 345 323 325 257 319 293 302 280 306 223 253 273 322 156 304 315 332 331 331 329 325 324 325 320 311 304 290 264 241 230 230 228 224 223 231 227 229 229 224 227 227
263 303 256 284 296 273 298 315 317 103 35 273 233 182 277 274 227 307 288 311 317 322 322 324 324 323 318 310 301 292 272 249 235 226 230 229 226 221 223 228 230 228 228 224
327 265 298 344 318 4 12 5 346 356 4 235 150 286 252 248 217 242 314 332 329 322 319 315 316 315 312 307 300 293 276 256 234 225 229 228 231 230 230 233 237 231 228 227
35 327 14 355 56 298 345 58 125 288 297 293 282 233 256 193 227 301 331 341 330 321 319 314 313 313 311 306 300 292 281 257 237 221 225 230 228 233 234 237 241 241 231 226
41 276 324 263 273 136 287 3 193 261 248 278 268 282 289 212 317 340 335 326 322 319 321 314 313 311 311 306 297 290 280 259 239 216 222 225 228 233 233 235 240 243 233 224
160 312 224 279 303 207 153 310 10 0 309 295 266 281 272 311 337 322 331 325 325 325 319 316 313 313 314 304 295 291 273 254 236 219 217 219 227 230 233 233 236 233 225 215
134 125 277 335 220 187 344 350 345 268 237 271 306 294 237 0 329 334 330 330 333 328 326 322 321 324 316 302 298 290 279 253 229 220 211 213 222 227 229 228 228 227 222 215
167 174 276 255 259 281 264 225 153 129 302 269 268 270 295 336 339 336 327 337 334 332 330 329 330 330 324 314 297 281 273 247 220 219 213 212 221 217 228 218 221 220 218 210
182 280 333 344 5 14 247 189 184 96 97 240 274 278 314 328 336 332 331 338 336 335 335 338 341 341 335 328 321 297 276 227 200 203 203 207 207 215 219 218 215 215 209 200
168 176 181 208 221 103 288 273 279 164 244 270 248 287 312 328 330 332 341 339 337 338 340 344 348 354 354 350 347 338 195 188 192 198 193 192 196 201 203 202 197 192 190 174
152 229 203 257 267 273 269 267 259 210 231 253 276 300 305 333 326 329 338 337 342 345 348 353 358 4 14 18 28 81 144 168 179 188 180 177 178 181 179 171 167 161 163 163
98 273 315 288 300 170 274 267 259 246 249 251 266 284 340 328 325 338 345 345 346 349 352 1 8 16 29 39 52 84 123 149 164 166 164 160 159 158 154 152 153 153 153 151
154 143 31 270 335 309 320 231 209 240 208 202 273 299 328 321 328 350 347 352 348 351 0 8 18 28 40 56 72 87 106 126 141 140 141 146 150 148 148 152 150 151 149 149
123 138 122 278 337 6 248 283 220 229 259 241 268 291 310 312 315 317 2 356 353 0 7 18 28 40 53 68 83 99 111 122 130 133 137 142 145 145 146 147 146 145 141 143
190 168 282 155 258 295 303 201 167 158 284 214 263 297 316 328 323 286 0 6 8 12 17 28 39 52 63 75 90 102 108 118 124 127 132 137 140 141 142 140 139 136 138 128
143 138 127 66 150 228 241 140 109 120 295 198 245 301 333 342 15 337 355 11 18 26 29 38 53 63 77 86 97 104 109 115 116 124 128 133 135 134 132 132 134 130 128 122
158 196 210 194 250 284 254 221 115 78 242 234 327 332 343 10 302 331 7 22 32 35 40 46 59 72 80 89 93 100 105 106 116 121 123 125 128 128 127 127 124 121 121 135
166 167 200 125 207 289 189 109 180 177 96 350 342 345 342 350 5 17 27 29 40 46 54 60 69 78 88 93 93 95 100 109 111 115 118 120 120 120 119 118 121 134 137 137
243 194 180 190 215 247 203 229 205 226 274 341 324 337 358 0 16 27 39 44 50 54 60 67 74 83 88 94 100 105 109 111 113 116 116 114 112 113 119 124 130 133 136 137
235 188 225 131 257 235 249 250 254 264 263 281 279 302 49 13 16 48 56 62 67 75 75 77 84 89 92 96 100 104 110 110 110 112 118 121 122 125 128 130 131 132 135 141
204 152 192 263 280 268 262 257 252 260 231 197 219 232 147 112 14 105 94 98 87 90 91 95 94 95 98 102 102 104 109 118 118 118 120 124 125 128 130 129 125 128 129 127
187 189 179 221 233 227 261 278 269 235 220 216 248 216 175 173 178 160 134 125 125 116 115 115 112 112 112 112 111 111 113 120 113 114 116 115 116 124 135 142 147 152 158 155
Height
1516 1520 1525 1526 1525 1522 1523 1525 1521 1510 1501 1500 1490 1482 1462 1458 1458 1456 1458 1456 1454 1450 1446 1441 1437 1433 1429 1429 1430 1432 1435 1437 1439 1441 1445 1446 1446 1459 1465 1471 1476 1482 1487 1491
1522 1524 1524 1523 1521 1521 1520 1518 1515 1503 1498 1501 1488 1473 1458 1458 1456 1455 1454 1454 1451 1447 1442 1437 1434 1430 1427 1424 1423 1424 1426 1430 1432 1434 1437 1440 1433 1447 1456 1462 1468 1474 1480 1484
1530 1525 1525 1524 1521 1518 1516 1516 1511 1513 1500 1492 1488 1472 1460 1453 1454 1454 1453 1449 1450 1446 1438 1433 1429 1426 1423 1420 1418 1418 1418 1419 1424 1427 1430 1434 1437 1441 1446 1452 1457 1462 1468 1474
1527 1526 1526 1523 1519 1520 1516 1511 1512 1509 1509 1512 1494 1498 1463 1455 1454 1453 1453 1448 1444 1441 1437 1433 1427 1421 1418 1414 1412 1410 1410 1412 1414 1419 1422 1423 1426 1432 1438 1443 1447 1451 1456 1463
1524 1527 1527 1521 1519 1518 1514 1510 1506 1504 1506 1505 1495 1498 1461 1452 1450 1451 1449 1445 1441 1438 1434 1428 1422 1417 1412 1408 1405 1403 1401 1402 1406 1410 1414 1415 1420 1425 1431 1435 1440 1446 1451 1455
1529 1527 1528 1524 1519 1518 1515 1508 1503 1504 1504 1513 1493 1491 1459 1452 1448 1449 1447 1442 1437 1433 1427 1422 1416 1411 1405 1401 1397 1395 1394 1393 1397 1401 1405 1407 1414 1418 1422 1427 1433 1439 1444 1447
1534 1525 1526 1525 1522 1517 1518 1520 1538 1530 1530 1510 1486 1485 1459 1450 1448 1446 1442 1437 1433 1428 1421 1415 1410 1404 1397 1392 1389 1386 1385 1384 1387 1392 1396 1400 1406 1409 1415 1420 1425 1431 1436 1439
1559 1539 1528 1527 1526 1526 1526 1528 1551 1555 1532 1498 1477 1481 1451 1444 1444 1443 1440 1432 1427 1421 1415 1408 1402 1395 1389 1383 1380 1377 1377 1376 1378 1384 1387 1393 1399 1401 1408 1414 1419 1425 1429 1433
1564 1541 1528 1527 1525 1527 1528 1539 1524 1520 1528 1510 1478 1462 1446 1443 1441 1436 1435 1432 1423 1415 1409 1400 1392 1386 1380 1375 1372 1369 1368 1368 1370 1375 1381 1386 1391 1395 1401 1408 1414 1418 1423 1426
1553 1566 1530 1527 1524 1523 1526 1526 1536 1540 1533 1517 1480 1462 1445 1442 1441 1438 1434 1426 1417 1412 1403 1395 1386 1378 1373 1368 1364 1361 1360 1360 1364 1368 1375 1380 1385 1391 1396 1401 1406 1411 1416 1419
1551 1559 1533 1527 1524 1526 1534 1538 1533 1526 1520 1517 1490 1455 1444 1445 1444 1436 1429 1421 1416 1407 1398 1388 1379 1371 1366 1361 1357 1355 1354 1354 1357 1363 1368 1370 1379 1385 1390 1395 1400 1405 1410 1415
1549 1556 1556 1530 1523 1525 1525 1531 1532 1542 1523 1514 1507 1468 1442 1442 1440 1436 1428 1421 1413 1404 1394 1384 1374 1366 1360 1354 1350 1348 1347 1348 1351 1358 1362 1368 1375 1382 1388 1389 1395 1401 1406 1410
1549 1563 1572 1538 1529 1523 1523 1522 1523 1533 1531 1517 1508 1469 1439 1443 1441 1435 1426 1420 1410 1400 1391 1381 1371 1363 1356 1349 1344 1342 1342 1344 1348 1354 1359 1365 1372 1379 1385 1387 1394 1400 1406 1412
1545 1554 1556 1547 1524 1530 1525 1521 1521 1535 1533 1508 1491 1468 1446 1444 1442 1432 1426 1420 1410 1401 1391 1381 1371 1362 1355 1348 1342 1339 1339 1342 1347 1352 1357 1361 1370 1377 1381 1387 1393 1399 1408 1414
1544 1559 1553 1538 1528 1531 1527 1521 1519 1524 1512 1510 1481 1475 1458 1451 1444 1435 1430 1420 1410 1400 1391 1382 1373 1364 1356 1350 1345 1342 1343 1346 1350 1354 1359 1363 1369 1375 1381 1388 1397 1400 1406 1416
1544 1555 1544 1540 1525 1523 1520 1509 1506 1504 1503 1498 1488 1471 1459 1452 1445 1438 1431 1421 1412 1403 1395 1385 1377 1369 1361 1356 1351 1349 1349 1351 1354 1357 1363 1368 1369 1377 1384 1392 1399 1406 1415 1420
1545 1552 1559 1554 1529 1525 1519 1495 1489 1492 1489 1488 1484 1464 1457 1451 1444 1440 1432 1424 1416 1407 1399 1392 1384 1376 1370 1364 1360 1357 1357 1358 1360 1364 1370 1373 1378 1383 1388 1397 1403 1412 1417 1425
1543 1546 1558 1559 1545 1528 1483 1483 1484 1487 1480 1477 1473 1466 1462 1455 1446 1443 1437 1429 1420 1412 1404 1398 1391 1384 1378 1373 1369 1367 1367 1366 1367 1372 1377 1381 1385 1389 1393 1402 1411 1417 1422 1437
1535 1540 1565 1575 1563 1514 1478 1477 1479 1485 1476 1469 1470 1466 1460 1452 1444 1442 1439 1433 1426 1418 1411 1404 1398 1393 1388 1382 1379 1376 1375 1376 1378 1381 1385 1390 1393 1398 1403 1411 1421 1428 1434 1443
1536 1539 1560 1576 1574 1533 1476 1477 1477 1479 1483 1468 1468 1465 1461 1453 1446 1448 1443 1437 1430 1423 1416 1410 1405 1400 1396 1393 1390 1387 1387 1387 1390 1394 1398 1402 1407 1411 1416 1424 1432 1436 1444 1451
1545 1541 1549 1559 1561 1520 1479 1476 1477 1490 1476 1465 1465 1463 1461 1458 1459 1454 1449 1443 1436 1430 1424 1418 1413 1408 1405 1403 1401 1398 1400 1401 1406 1408 1412 1417 1423 1427 1431 1437 1443 1448 1453 1459
1529 1536 1548 1555 1554 1518 1469 1474 1474 1464 1462 1462 1461 1461 1460 1458 1456 1454 1451 1447 1442 1437 1433 1429 1424 1420 1418 1416 1414 1412 1412 1417 1420 1424 1427 1431 1436 1440 1444 1448 1451 1456 1460 1464
1519 1500 1508 1506 1488 1462 1462 1458 1458 1459 1459 1460 1460 1460 1460 1458 1456 1454 1452 1451 1448 1445 1442 1440 1436 1434 1432 1430 1428 1425 1427 1431 1433 1435 1438 1442 1445 1448 1451 1455 1458 1461 1465 1469
1493 1489 1491 1487 1454 1456 1456 1455 1455 1457 1456 1457 1459 1458 1459 1457 1456 1455 1453 1452 1451 1449 1449 1448 1447 1444 1442 1442 1442 1441 1442 1442 1443 1444 1446 1449 1451 1454 1458 1461 1464 1466 1469 1471
1480 1483 1481 1475 1454 1451 1449 1447 1449 1449 1450 1453 1455 1456 1457 1457 1456 1455 1454 1453 1453 1452 1452 1452 1452 1451 1450 1451 1450 1450 1451 1453 1453 1453 1454 1457 1459 1461 1462 1465 1468 1470 1473 1475
1462 1460 1464 1456 1441 1443 1443 1443 1443 1443 1446 1450 1452 1453 1454 1456 1456 1455 1454 1455 1455 1454 1454 1455 1455 1455 1455 1455 1455 1456 1457 1459 1460 1460 1461 1463 1464 1465 1466 1468 1469 1472 1474 1476